This demonstration page uses our WeatherBlox Daily Observations layout. Learn more.

Left ArrowRight Arrow

36.19886, -115.1175

Hourly Observations for May 25, 2021

Temp ( °F °C ) Dew Point ( °F °C ) Humidity (%) Winds ( mph kmh ) Pressure ( in mb ) Visibility ( mi km ) Precip ( " mm )
12:53 am 00:53 Clear 72 22.2 26 -3.3 18 18 W 7 11 29.91 1013 10 16 N/A
1:53 am 01:53 Clear 70 21.1 28 -2.2 21 21 N N/A 29.90 1013 10 16 N/A
2:53 am 02:53 Clear 68 20 30 -1.1 24 24 NW 5 7 29.89 1012 10 16 N/A
3:53 am 03:53 Clear 70 21.1 28 -2.2 21 21 W 5 7 29.89 1012 10 16 N/A
4:53 am 04:53 Clear 68 20 28 -2.2 22 22 N 3 6 29.90 1012 10 16 N/A
5:53 am 05:53 Sunny 67 19.4 25 -3.9 20 20 NW 6 9 29.91 1013 10 16 N/A
6:53 am 06:53 Sunny 70 21.1 26 -3.3 19 19 N N/A 29.92 1013 10 16 N/A
7:53 am 07:53 Sunny 75 23.9 24 -4.4 15 15 N N/A 29.93 1014 10 16 N/A
8:53 am 08:53 Sunny 79 26.1 24 -4.4 13 13 E 9 15 29.93 1014 10 16 N/A
9:53 am 09:53 Sunny 82 27.8 24 -4.4 12 12 ESE 8 13 29.92 1013 10 16 N/A
10:53 am 10:53 Sunny 86 30 24 -4.4 10 10 ESE 9 15 29.91 1013 10 16 N/A
11:53 am 11:53 Sunny 87 30.6 25 -3.9 10 10 ESE 5 7 29.89 1012 10 16 N/A
12:53 pm 12:53 Sunny 90 32.2 23 -5 9 9 SE 13 20 29.85 1011 10 16 N/A
1:53 pm 13:53 Sunny 91 32.8 24 -4.4 9 9 VRB 3 6 29.82 1010 10 16 N/A
2:53 pm 14:53 Sunny 95 35 15 -9.4 5 5 SSW 13 20 29.79 1009 10 16 N/A
3:05 pm 15:05 Sunny 95 35 14 -10 5 5 SW 16 26 29.62 1003 10 16 N/A
3:53 pm 15:53 Sunny 95 35 13 -10.6 5 5 WSW 22 35 29.77 1008 10 16 N/A
4:53 pm 16:53 Sunny 93 33.9 13 -10.6 5 5 SSW 15 24 29.76 1008 10 16 N/A
5:53 pm 17:53 Sunny 92 33.3 20 -6.7 7 7 SSW 16 26 29.75 1008 10 16 N/A
6:53 pm 18:53 Sunny 91 32.8 15 -9.4 6 6 SW 15 24 29.75 1008 10 16 N/A
7:53 pm 19:53 Clear 89 31.7 18 -7.8 7 7 SSW 15 24 29.76 1008 10 16 N/A
8:53 pm 20:53 Clear 88 31.1 20 -6.7 8 8 S 7 11 29.77 1008 10 16 N/A
9:53 pm 21:53 Clear 87 30.6 22 -5.6 9 9 SW 8 13 29.78 1008 10 16 N/A
10:53 pm 22:53 Clear 85 29.4 23 -5 10 10 SW 5 7 29.78 1009 10 16 N/A
11:53 pm 23:53 Clear 84 28.9 24 -4.4 11 11 SW 6 9 29.79 1009 10 16 N/A

Powered by AerisWeather